Regional Weather Roundup
Issued by NWS Burlington, VT

Home | Current Version | Previous Version | Text Only | Print | Product List | Glossary On
Versions: 1 2 3 4 5 6 7 8 9 10 11 12 13 14 15 16 17 18 19 20 21 22 23 24 25 26 27 28 29 30 31 32 33 34 35 36 37 38 39 40 41 42 43 44 45 46 47 48 49 50
000
ASUS41 KBTV 271610
RWRBTV
VERMONT REGIONAL WEATHER ROUNDUP
NATIONAL WEATHER SERVICE BURLINGTON VT
1100 AM EST FRI FEB 27 2015

NOTE: "FAIR" INDICATES FEW OR NO CLOUDS BELOW 12,000 FEET WITH NO
SIGNIFICANT WEATHER AND/OR OBSTRUCTIONS TO VISIBILITY.

* THESE REPORTS ARE NOT UNDER NWS QUALITY CONTROL AND/OR DO NOT
  REPORT WEATHER SUCH AS PRECIPITATION AND FOG.

VTZ001>019-271700-
_____VERMONT_____


CITY           SKY/WX    TMP DP  RH WIND       PRES   REMARKS
BURLINGTON     SUNNY     14  -8  37 VRB3      30.39S
MONTPELIER     SUNNY      9  -8  46 NW10      30.32S WCI  -5
MORRISVILLE    FLURRIES  13  -8  39 CALM      30.34S
ST. JOHNSBURY*   N/A     11  -8  42 MISG      30.31F
LYNDONVILLE*   FAIR      10 -13  34 SW7       30.28S
MIDDLEBURY*    FAIR      12  -9  38 W5        30.38R
RUTLAND*       SUNNY     10  -9  40 N8        30.34S
SPRINGFIELD    SUNNY     15  -7  37 W9        30.34F
HIGHGATE*      FAIR      10 -10  41 CALM      30.41R
NEWPORT*       FAIR      10  -8  44 N5        30.30R
BENNINGTON     SUNNY     12  -6  44 W8        30.35S
SUTTON*          N/A      9 N/A N/A MISG        N/A

_____LAKE CHAMPLAIN_____


CITY           SKY/WX    TMP DP  RH WIND       PRES   REMARKS

$$

NYZ007-026>031-035-052-083-271700-
_____NORTHERN NEW YORK_____


CITY           SKY/WX    TMP DP  RH WIND       PRES   REMARKS
PLATTSBURGH    MIX PCPN  10  -1  61 SE9       30.39S
SARANAC LAKE   SUNNY      7 -10  46 W9        30.24R
MASSENA        SUNNY      8  -9  45 W8        30.44R
OGDENSBURG*    SUNNY     18  -6  35 W3        30.42F
POTSDAM*       SUNNY      9  -6  52 W5        30.41S
WATERTOWN      SUNNY     13   3  64 W9        30.43S
FT DRUM        SUNNY     11 -10  37 VRB1      30.38S
ALBANY         SUNNY     16  -4  41 NW9       30.42S
GLENS FALLS    SUNNY     13  -3  49 SE3       30.40S

$$
NHZ002-005-011-271700-
_____NEW HAMPSHIRE_____


CITY           SKY/WX    TMP DP  RH WIND       PRES   REMARKS
LEBANON        SUNNY     14  -7  38 NW10      30.33F WCI   1
KEENE          SUNNY     16  -6  38 N7        30.34S
MT WASHINGTON  MOSUNNY   -8 -20  54 NW32        N/A  WCI -37
PLYMOUTH       FAIR      15  -4  42 W14G20    30.31S WCI   1
WHITEFIELD     SUNNY     11 -10  38 W5        30.28S

$$

_____REGIONAL QUEBEC LOCATIONS_____


CITY           SKY/WX    TMP DP  RH WIND       PRES   REMARKS
MONTREAL       SUNNY      5  -8  56 SW13      30.41S WCI -12
QUEBEC CITY    MOSUNNY    3  -8  60 SW12      30.30S WCI -13
SHERBROOKE     SUNNY      9  -8  47 W12       30.29S WCI  -6

_____REGIONAL ONTARIO LOCATIONS_____


CITY           SKY/WX    TMP DP  RH WIND       PRES   REMARKS
OTTAWA         SUNNY      7  -8  51 NW5       30.40S

______KEY______
VSB  - VISIBILITY IN MILES
WCI  - WIND CHILL INDEX
HX   - HEAT INDEX
$$



USA.gov is the U.S. government's official web portal to all federal, state and local government web resources and services.